[[{"header":{"parameterUnit":"m.s-1","parameterCategory":1,"la1":30.2992,"la2":30.254,"lo1":-89.0895,"lo2":-89.0443,"dy":0.0025,"dx":0.0025,"nx":19,"ny":19,"refTime":"2026-03-22T09:00:00:Z","depth":0,"parameterNumber":2,"parameterNumberName":"U-component_of_WINDS"},"data":[0,0,0,-1.4931,-1.4933,-1.5012,-1.5013,-1.51,-1.51,0,0,0,0,0,0,0,0,0,0,0,-1.49,-1.49,-1.4931,-1.4933,-1.5012,-1.5013,-1.51,-1.51,0,0,0,0,0,0,0,0,0,0,0,-1.49,-1.49,-1.4901,-1.4933,-1.5012,-1.5013,-1.51,-1.5045,0,0,0,0,0,0,0,0,0,0,-1.497,-1.4933,-1.49,-1.4901,-1.4934,-1.5012,-1.5013,-1.5042,-1.5048,-1.5058,0,-1.5066,0,-1.5085,-1.5105,-1.5106,0,0,0,-1.4938,-1.4928,-1.4957,-1.4901,-1.4934,-1.5012,-1.4978,-1.5046,-1.5052,-1.5066,-1.5067,-1.5071,-1.5086,-1.5106,-1.5106,-1.5151,-1.515,0,0,-1.4934,-1.491,-1.4953,-1.4961,-1.4949,-1.4975,-1.498,-1.505,-1.5049,-1.5068,-1.5073,-1.5088,-1.5106,-1.5107,-1.5151,-1.515,0,0,0,-1.4918,-1.4906,-1.4934,-1.4957,-1.4973,-1.4978,-1.4983,-1.5046,-1.5057,-1.5074,-1.5089,-1.5107,-1.5108,-1.5151,-1.5151,-1.5125,0,0,0,-1.4915,-1.4897,-1.4932,-1.4917,-1.4971,-1.5011,-1.4978,-1.5052,-1.5061,-1.5088,-1.5107,-1.5109,-1.5151,-1.5151,-1.5126,-1.5116,0,0,0,-1.4897,-1.4895,-1.4904,-1.4916,-1.4949,-1.501,-1.5025,-1.5055,-1.5069,-1.5106,-1.5109,-1.5151,-1.5151,-1.5127,-1.5117,-1.5121,0,0,0,-1.4871,-1.4879,-1.4903,-1.4918,-1.4948,-1.4994,-1.5025,-1.506,-1.5088,-1.5107,-1.5151,-1.5151,-1.5127,-1.5118,-1.5122,-1.5119,-1.5116,0,0,-1.4867,-1.4877,-1.4888,-1.4912,-1.4947,-1.4984,-1.5016,-1.5064,-1.5089,-1.5128,-1.513,-1.5126,-1.5118,-1.5121,-1.5108,-1.5105,0,0,0,-1.4878,-1.4885,-1.49,-1.4927,-1.4965,-1.4997,-1.5044,-1.5062,-1.5097,-1.5104,-1.5129,-1.5125,-1.5128,-1.5128,-1.5125,-1.5129,-1.515,-1.515,-1.515,-1.4835,-1.487,-1.489,-1.4933,-1.4959,-1.5008,-1.5032,-1.5065,-1.509,-1.5095,-1.5106,-1.5095,-1.5093,-1.5092,-1.5096,-1.5109,-1.5109,-1.5108,-1.5108,-1.4832,-1.4847,-1.4884,-1.4916,-1.4952,-1.4979,-1.5027,-1.5045,-1.5075,-1.5088,-1.5093,-1.5103,-1.5088,-1.5093,-1.5107,-1.5107,-1.5107,-1.5107,-1.5108,-1.4807,-1.482,-1.4844,-1.4888,-1.4918,-1.4962,-1.4991,-1.5022,-1.5052,-1.5056,-1.5072,-1.5072,-1.5076,-1.5062,-1.5062,-1.5062,-1.5062,-1.5062,-1.5062,-1.477,-1.4798,-1.4818,-1.4862,-1.4885,-1.4919,-1.497,-1.4993,-1.5026,-1.5047,-1.5047,-1.5071,-1.5081,-1.5082,-1.5061,-1.5061,-1.5061,-1.5061,-1.5061,-1.475,-1.4761,-1.4792,-1.4815,-1.4871,-1.4899,-1.494,-1.4985,-1.5008,-1.5021,-1.5046,-1.5048,-1.506,-1.5062,-1.5063,-1.5039,-1.5039,-1.5039,-1.5039,-1.4728,-1.4739,-1.4779,-1.4814,-1.4852,-1.4894,-1.4928,-1.497,-1.5014,-1.503,-1.5039,-1.5044,-1.5045,-1.5056,-1.5058,-1.506,-1.5035,-1.5035,-1.5035,-1.4718,-1.4734,-1.4757,-1.4802,-1.4849,-1.4888,-1.4922,-1.496,-1.5012,-1.5036,-1.5044,-1.5044,-1.5052,-1.5053,-1.5073,-1.5076,-1.508,0,0]},{"header":{"parameterUnit":"m.s-1","parameterCategory":1,"la1":30.2992,"la2":30.254,"lo1":-89.0895,"lo2":-89.0443,"dy":0.0025,"dx":0.0025,"nx":19,"ny":19,"refTime":"2026-03-22T09:00:00:Z","depth":0,"parameterNumber":3,"parameterNumberName":"V-component_of_WINDS"},"data":[0,0,0,-2.4978,-2.4978,-2.4967,-2.4967,-2.4964,-2.4964,0,0,0,0,0,0,0,0,0,0,0,-2.4989,-2.499,-2.4978,-2.4978,-2.4967,-2.4967,-2.4964,-2.4964,0,0,0,0,0,0,0,0,0,0,0,-2.4989,-2.4989,-2.499,-2.4978,-2.4967,-2.4967,-2.4964,-2.4968,0,0,0,0,0,0,0,0,0,0,-2.4978,-2.4995,-2.4989,-2.499,-2.4978,-2.4967,-2.4967,-2.4968,-2.4968,-2.4974,0,-2.4982,0,-2.4973,-2.4964,-2.4964,0,0,0,-2.4973,-2.4995,-2.4985,-2.499,-2.4978,-2.4967,-2.497,-2.4968,-2.4968,-2.4974,-2.4982,-2.4981,-2.4973,-2.4964,-2.4964,-2.5019,-2.5019,0,0,-2.4974,-2.4991,-2.4985,-2.4985,-2.4988,-2.4971,-2.497,-2.4968,-2.4977,-2.4982,-2.4981,-2.4973,-2.4965,-2.4965,-2.5018,-2.5019,0,0,0,-2.4979,-2.4992,-2.4982,-2.4986,-2.4983,-2.4971,-2.497,-2.4977,-2.4972,-2.4981,-2.4973,-2.4965,-2.4965,-2.5018,-2.5019,-2.5061,0,0,0,-2.4979,-2.4995,-2.4982,-2.4993,-2.4983,-2.498,-2.498,-2.4973,-2.4972,-2.4973,-2.4965,-2.4965,-2.5017,-2.5018,-2.5058,-2.5078,0,0,0,-2.4988,-2.4996,-2.4997,-2.4994,-2.499,-2.4979,-2.4974,-2.4972,-2.4967,-2.4964,-2.4965,-2.5017,-2.5018,-2.5056,-2.5074,-2.5097,0,0,0,-2.5002,-2.5035,-2.4998,-2.5032,-2.499,-2.5006,-2.4974,-2.4985,-2.4988,-2.4965,-2.5017,-2.5019,-2.5056,-2.5072,-2.5095,-2.512,-2.5132,0,0,-2.5053,-2.5041,-2.506,-2.5027,-2.5054,-2.5006,-2.5039,-2.5025,-2.5009,-2.5016,-2.5017,-2.5059,-2.5074,-2.5097,-2.5193,-2.5202,0,0,0,-2.5082,-2.5096,-2.5099,-2.5102,-2.5092,-2.5085,-2.5064,-2.5059,-2.5065,-2.5016,-2.5073,-2.5081,-2.5094,-2.5105,-2.5113,-2.5123,-2.5024,-2.5024,-2.5024,-2.518,-2.5158,-2.5187,-2.5163,-2.5166,-2.5144,-2.5145,-2.5134,-2.511,-2.5124,-2.5126,-2.5187,-2.5201,-2.5207,-2.5217,-2.5137,-2.5137,-2.5138,-2.5138,-2.5254,-2.5269,-2.5236,-2.5253,-2.5229,-2.5242,-2.5222,-2.5205,-2.5214,-2.5184,-2.5193,-2.5162,-2.5218,-2.5226,-2.5141,-2.514,-2.514,-2.514,-2.5139,-2.5315,-2.5319,-2.5312,-2.5314,-2.5319,-2.5293,-2.5303,-2.5281,-2.526,-2.527,-2.527,-2.5269,-2.5265,-2.5271,-2.5271,-2.5272,-2.5272,-2.5272,-2.5272,-2.5382,-2.5373,-2.5384,-2.5376,-2.5375,-2.5371,-2.535,-2.5348,-2.5341,-2.5324,-2.5324,-2.5298,-2.5227,-2.521,-2.5275,-2.5275,-2.5274,-2.5274,-2.5274,-2.5464,-2.5442,-2.546,-2.5459,-2.5448,-2.5454,-2.5425,-2.5424,-2.542,-2.5426,-2.5398,-2.5349,-2.5336,-2.5329,-2.5315,-2.5403,-2.5403,-2.5403,-2.5403,-2.5516,-2.5507,-2.552,-2.552,-2.5518,-2.5494,-2.5515,-2.5498,-2.5478,-2.5473,-2.5457,-2.5436,-2.543,-2.542,-2.5412,-2.5398,-2.5505,-2.5505,-2.5505,-2.5566,-2.5555,-2.5577,-2.5557,-2.5546,-2.5538,-2.5557,-2.5559,-2.5531,-2.5509,-2.547,-2.5465,-2.5431,-2.5421,-2.5398,-2.5385,-2.5359,0,0]}]]